{"data":{"norad_id":44800,"intl_designator":"2019-080A","name":"TIBA-1","alt_names":[],"object_type":"PAYLOAD","status":"ACTIVE","operator":null,"country":"EGYP","launch_date":"2019-11-26","launch_site_code":"FRGUI","launch_vehicle":null,"mission":null,"orbit_class":"UNKNOWN","rcs_meters":null,"size_class":null,"mass_kg":null,"dimensions":null,"purposes":["comms"],"wikipedia_slug":null,"has_3d_model":false,"image_url":null,"decayed_at":null,"tle_current":{"epoch":"2026-09-19T20:33:38.167200Z","epoch_age_seconds":77464,"freshness":"FRESH","line1":"1 44800U 19080A   26262.85669175  .00000152  00000+0  00000+0 0  9995","line2":"2 44800   0.0557 355.2607 0002175 179.4151 167.9746  1.00271548 24998","mean_motion":1.00271548,"eccentricity":0.0002175,"inclination_deg":0.0557,"raan_deg":355.2607,"arg_perigee_deg":179.4151,"mean_anomaly_deg":167.9746,"bstar":0,"rev_number":2499,"period_min":1436.1002983618,"perigee_km":35777.490557373,"apogee_km":35795.832244677,"semimajor_km":42164.798401025,"source":"CELESTRAK","updated_at":"2026-09-20T09:00:35.290803Z"}}}